| time (UTC) | temp C | wind direction | speed KPH | gust KPH | rain 1hr cm | rain 24hr cm | rain mn cm | humidity % | barometer mb |
| 20260503224604 | 15 | 222 | 1.6 | 16.1 | 0.00 | 0.00 | 0.00 | 45 | 1010.9 |
| 20260503223057 | 15 | 352 | 4.8 | 17.7 | 0.00 | 0.00 | 0.00 | 44 | 1011.0 |
| 20260503221602 | 16 | 242 | 4.8 | 19.3 | 0.00 | 0.00 | 0.00 | 44 | 1011.0 |
| 20260503220058 | 16 | 219 | 6.4 | 22.5 | 0.00 | 0.00 | 0.00 | 42 | 1010.9 |
| 20260503214600 | 16 | 203 | 6.4 | 20.9 | 0.00 | 0.00 | 0.00 | 45 | 1011.0 |
| 20260503213057 | 15 | 121 | 3.2 | 22.5 | 0.00 | 0.00 | 0.00 | 45 | 1011.1 |
| 20260503211558 | 16 | 228 | 3.2 | 12.9 | 0.00 | 0.00 | 0.00 | 44 | 1011.1 |
| 20260503210055 | 16 | 223 | 6.4 | 25.7 | 0.00 | 0.00 | 0.00 | 42 | 1011.1 |
| 20260503204557 | 16 | 198 | 6.4 | 22.5 | 0.00 | 0.00 | 0.00 | 42 | 1011.0 |
| 20260503203113 | 17 | 297 | 6.4 | 19.3 | 0.00 | 0.00 | 0.00 | 40 | 1011.2 |
| 20260503201556 | 17 | 198 | 3.2 | 16.1 | 0.00 | 0.00 | 0.00 | 42 | 1011.1 |
| 20260503200105 | 16 | 184 | 4.8 | 17.7 | 0.00 | 0.00 | 0.00 | 42 | 1011.4 |
| 20260503194557 | 16 | 207 | 3.2 | 17.7 | 0.00 | 0.00 | 0.00 | 43 | 1011.8 |
| 20260503193057 | 16 | 4 | 3.2 | 17.7 | 0.00 | 0.00 | 0.00 | 43 | 1012.1 |
| 20260503191558 | 16 | 221 | 9.7 | 25.7 | 0.00 | 0.00 | 0.00 | 41 | 1012.3 |
| 20260503190106 | 16 | 247 | 4.8 | 33.8 | 0.00 | 0.00 | 0.00 | 45 | 1012.5 |
| 20260503184602 | 16 | 235 | 8.0 | 24.1 | 0.00 | 0.00 | 0.00 | 43 | 1012.7 |
| 20260503183057 | 16 | 235 | 8.0 | 22.5 | 0.00 | 0.00 | 0.00 | 45 | 1013.1 |
| 20260503181600 | 15 | 235 | 4.8 | 24.1 | 0.00 | 0.00 | 0.00 | 45 | 1012.9 |
| 20260503180058 | 16 | 150 | 3.2 | 25.7 | 0.00 | 0.00 | 0.00 | 46 | 1013.1 |
| 20260503174554 | 16 | 224 | 6.4 | 27.4 | 0.00 | 0.00 | 0.00 | 44 | 1013.4 |
| 20260503173100 | 15 | 326 | 8.0 | 20.9 | 0.00 | 0.00 | 0.00 | 46 | 1013.5 |
| 20260503171604 | 15 | 222 | 3.2 | 25.7 | 0.00 | 0.00 | 0.00 | 50 | 1013.7 |
| 20260503100110 | 2 | 166 | 0.0 | 3.2 | 0.00 | 0.10 | 0.00 | 80 | 1014.7 |
| 20260503081600 | 1 | 0 | 0.0 | 0.0 | 0.00 | 0.28 | 0.00 | 85 | 1014.8 |
| 20260503071604 | 1 | 0 | 0.0 | 0.0 | 0.00 | 0.28 | 0.00 | 87 | 1014.8 |
| 20260503070109 | 1 | 0 | 0.0 | 0.0 | 0.00 | 0.28 | 0.00 | 88 | 1014.9 |
| 20260503060118 | 1 | 0 | 0.0 | 0.0 | 0.00 | 0.30 | 0.00 | 87 | 1015.2 |
| 20260503054608 | 1 | 0 | 0.0 | 0.0 | 0.00 | 0.30 | 0.00 | 86 | 1015.2 |
| 20260503053057 | 1 | 0 | 0.0 | 0.0 | 0.00 | 0.30 | 0.00 | 85 | 1015.2 |
| 20260503051554 | 2 | 0 | 0.0 | 0.0 | 0.00 | 0.30 | 0.00 | 84 | 1015.1 |
| 20260503050055 | 2 | 0 | 0.0 | 0.0 | 0.00 | 0.30 | 0.00 | 82 | 1015.3 |
| 20260503044558 | 3 | 0 | 0.0 | 0.0 | 0.00 | 0.51 | 0.00 | 80 | 1015.4 |
| 20260503043057 | 3 | 0 | 0.0 | 1.6 | 0.00 | 0.51 | 0.00 | 78 | 1015.3 |
| 20260503041557 | 4 | 237 | 0.0 | 3.2 | 0.00 | 0.51 | 0.00 | 77 | 1015.4 |
| 20260503040058 | 5 | 236 | 0.0 | 3.2 | 0.00 | 0.51 | 0.00 | 76 | 1015.5 |
| 20260503034607 | 5 | 235 | 0.0 | 4.8 | 0.00 | 0.66 | 0.51 | 76 | 1015.6 |
| 20260503033106 | 5 | 233 | 0.0 | 4.8 | 0.00 | 0.66 | 0.51 | 75 | 1015.4 |
| 20260503031557 | 5 | 0 | 0.0 | 1.6 | 0.00 | 0.66 | 0.51 | 75 | 1015.6 |
| 20260503030054 | 4 | 242 | 0.0 | 1.6 | 0.00 | 0.66 | 0.51 | 77 | 1015.6 |
| 20260503024558 | 4 | 0 | 0.0 | 0.0 | 0.00 | 0.66 | 0.51 | 79 | 1015.7 |
| 20260503023102 | 4 | 0 | 0.0 | 0.0 | 0.00 | 0.66 | 0.51 | 78 | 1015.9 |
| 20260503021556 | 4 | 0 | 0.0 | 0.0 | 0.00 | 0.66 | 0.51 | 78 | 1015.9 |
| 20260503020057 | 4 | 0 | 0.0 | 0.0 | 0.00 | 0.66 | 0.51 | 78 | 1015.8 |
| 20260503014559 | 4 | 0 | 0.0 | 0.0 | 0.00 | 0.66 | 0.51 | 76 | 1015.7 |
| 20260503013056 | 4 | 0 | 0.0 | 0.0 | 0.00 | 0.66 | 0.51 | 75 | 1015.7 |
| 20260503011555 | 5 | 0 | 0.0 | 0.0 | 0.00 | 0.66 | 0.51 | 76 | 1015.8 |
| 20260503010057 | 5 | 0 | 0.0 | 0.0 | 0.00 | 0.66 | 0.51 | 73 | 1015.7 |
| 20260503004553 | 5 | 0 | 0.0 | 0.0 | 0.00 | 0.66 | 0.51 | 70 | 1015.6 |
| 20260503003107 | 5 | 0 | 0.0 | 0.0 | 0.00 | 0.66 | 0.51 | 66 | 1015.5 |
| 20260503001554 | 6 | 0 | 0.0 | 0.0 | 0.00 | 0.66 | 0.51 | 63 | 1015.6 |
| 20260503000055 | 6 | 0 | 0.0 | 1.6 | 0.00 | 0.66 | 0.51 | 62 | 1015.6 |
| 20260502234559 | 6 | 317 | 0.0 | 1.6 | 0.00 | 0.66 | 0.51 | 62 | 1015.4 |
| 20260502233054 | 6 | 311 | 0.0 | 4.8 | 0.00 | 0.66 | 0.51 | 61 | 1015.4 |
| 20260502231608 | 6 | 312 | 0.0 | 8.0 | 0.00 | 0.66 | 0.51 | 61 | 1015.4 |
| 20260502230058 | 6 | 72 | 0.0 | 4.8 | 0.00 | 0.66 | 0.51 | 59 | 1015.5 |